星链-31875 (STARLINK-31875 )

导读 | 星芒AI

STARLINK-31875 是 SpaceX Starlink 项目中的一颗低轨通信卫星,属于第三代星链卫星(v1.5或v2版本)。该卫星于2023年发射,部署在约550公里高度的近地轨道,用于提供全球高速互联网服务。它采用先进推进系统和激光通信技术,提升网络效率与稳定性。作为星链星座的一部分,STARLINK-31875 支持偏远地区宽带接入,并增强整个星座的冗余与覆盖能力。

基本信息
目录编号:
59674
目录名称:
STARLINK-31875
国际标识:
2024-084W
轨道中心:
EARTH
卫星名称:
星链-31875
卫星全名:
星链-31875 (STARLINK-31875 )
卫星状态:
在轨 (已飞行593 天)
发射日期:
2024-05-06 UTC
国别 :
美国 (US)
星等 :
--
轨道信息
数据来源 国际轨道数据
星历时间: 2025-12-19T03:13:57+0800
1天前
查看轨道信息
半长轴: 6861.181km
偏心率: 0.0001366
轨道倾角: 43.002°
近地点辐角 272.017°
升交点赤经 135.034°
平近点角 88.053°
近地点: 482.108km
远地点: 483.984km
周期: 94.267分钟
每日圈数: 15.275818
详细信息
固有亮度:
5
最大亮度:
1.5
卫星平台:
Starlink v2.0 mini
覆盖范围:
全球
运营商:
太空探索技术公司
运营商所在国:
美国
制造商(研发单位):
太空探索技术公司
制造商所在国:
美国
使用方式:
暂无
卫星简介
星链(Starlink)计划是由太空探索技术公司(SpaceX)提出的一个巨型低轨卫星互联网星座项目,计划在2019年至2024年间在太空搭建由约1.2万颗卫星组成的“星链”网络,其中1584颗将部署在地球上空550千米处的近地轨道,并从2020年开始工作。该卫星仍在工作。
2D轨道图
3D轨道图
轨道高度分析图
轨道倾角分析图
轨道综合分析图
查看轨道综合分析图